This demonstration page uses our WeatherBlox Daily Observations layout. Learn more.

Hourly Observations for December 27, 2019

Temp ( °F °C ) Dew Point ( °F °C ) Humidity (%) Winds ( mph kmh ) Pressure ( in mb ) Visibility ( mi km ) Precip ( " mm )
12:54 am 00:54 Clear 21 -6.1 18 -7.8 88 88 S 6 9 30.27 1025 8 12.87472 0 0
1:54 am 01:54 Clear 20 -6.7 17 -8.3 89 89 Calm 30.28 1026 8 12.87472 0 0
2:54 am 02:54 Clear 21 -6.1 16 -8.9 81 81 W 3 6 30.3 1026 8 12.87472 0 0
3:54 am 03:54 Clear 20 -6.7 17 -8.3 89 89 S 3 6 30.31 1026 7 11.26538 0 0
4:54 am 04:54 Clear 19 -7.2 15 -9.4 84 84 Calm 30.31 1026 8 12.87472 0 0
5:54 am 05:54 Clear 18 -7.8 15 -9.4 88 88 Calm 30.3 1026 8 12.87472 0 0
6:54 am 06:54 Clear 18 -7.8 15 -9.4 88 88 Calm 30.32 1027 8 12.87472 0 0
7:54 am 07:54 Sunny with Mist and Fog 18 -7.8 16 -8.9 92 92 Calm 30.32 1027 4 6.43736 0 0
8:54 am 08:54 Sunny with Mist and Fog 21 -6.1 18 -7.8 88 88 Calm 30.32 1027 6 9.65604 0 0
9:54 am 09:54 Sunny with Mist and Fog 26 -3.3 22 -5.6 84 84 S 3 6 30.33 1027 6 9.65604 0 0
10:54 am 10:54 Sunny with Mist and Fog 31 -0.6 27 -2.8 85 85 S 5 7 30.3 1026 6 9.65604 0 0
11:54 am 11:54 Sunny 38 3.3 29 -1.7 70 70 SW 13 20 30.29 1026 9 14.48406 0 0
12:54 pm 12:54 Sunny 39 3.9 28 -2.2 65 65 VRB 3 6 30.24 1024 10 16.0934 0 0
1:54 pm 13:54 Sunny 40 4.4 28 -2.2 63 63 NE 7 11 30.2 1023 10 16.0934 0 0
2:54 pm 14:54 Mostly Cloudy 42 5.6 26 -3.3 53 53 SSE 6 9 30.19 1022 10 16.0934 0 0
3:54 pm 15:54 Cloudy 42 5.6 26 -3.3 53 53 E 5 7 30.19 1022 10 16.0934 0 0
4:54 pm 16:54 Mostly Sunny 38 3.3 26 -3.3 62 62 E 8 13 30.18 1022 10 16.0934 0 0
5:54 pm 17:54 Cloudy 38 3.3 27 -2.8 65 65 E 9 15 30.15 1021 10 16.0934 0 0
6:54 pm 18:54 Cloudy 38 3.3 27 -2.8 65 65 E 7 11 30.13 1020 10 16.0934 0 0
7:54 pm 19:54 Cloudy 37 2.8 28 -2.2 70 70 E 7 11 30.11 1020 10 16.0934 0 0
8:54 pm 20:54 Cloudy 39 3.9 27 -2.8 62 62 ESE 10 17 30.07 1018 10 16.0934 0 0
9:49 pm 21:49 Cloudy with Light Rain 37 3 28 -2 70 70 SE 12 19 30.06 1018 8 12.87472 0.001 0.001
9:54 pm 21:54 Cloudy with Rain 38 3.3 29 -1.7 70 70 SE 10 17 30.05 1018 6 9.65604 0.01 0.254
10:32 pm 22:32 Cloudy with Light Rain 37 2.8 31 -0.6 79 79 ESE 12 19 30.05 1017 6 9.65604 0.09 2.286
10:54 pm 22:54 Cloudy with Rain 36 2.2 32 0 86 86 SE 9 15 30.02 1017 5 8.0467 0.14 3.556
11:46 pm 23:46 Cloudy with Heavy Rain 36 2.2 32 0 86 86 E 5 7 30.04 1017 3 4.82802 0.13 3.302
11:54 pm 23:54 Cloudy with Heavy Rain 36 2.2 33 0.6 89 89 Calm 30.01 1016 3 4.82802 0.17 4.318

Powered by AerisWeather